Stevens Point, WI

6:40 AM CST on December 11, 2019 (GMT -0600)
Stevens Point Municipal

Weather History for KSTE - August, 2019

Change the Weather History Date:

Monday, August 19, 2019

  Actual Average Record
Temperature  
Mean Temperature 60 °F -  
Max Temperature 76 °F 77 °F 95 °F (1955)
Min Temperature 44 °F 56 °F 42 °F (1967)
Degree Days  
Heating Degree Days 6    
Growing Degree Days 10 (Base 50)    
Moisture  
Dew Point 50 °F    
Average Humidity 72    
Maximum Humidity 100    
Minimum Humidity 39    
Precipitation  
Precipitation 0.00 in - - ()
Sea Level Pressure  
Sea Level Pressure 30.02 in    
Wind  
Wind Speed 1 mph (SW)    
Max Wind Speed 12 mph    
Max Gust Speed -    
Visibility 10 miles    
Events      
Averages and records for this station are not official NWS values.
T = Trace of Precipitation, MM = Missing Value Source: NWS Daily Summary

Daily Weather History Graph

Daily Weather History Graph

Search for Another Location

Airport or City:

Astronomy

Aug. 19, 2019 Rise Set
Actual Time 6:05 AM CDT 7:57 PM CDT
Civil Twilight 5:34 AM CDT 8:28 PM CDT
Nautical Twilight 4:55 AM CDT 9:06 PM CDT
Astronomical Twilight 4:14 AM CDT 9:47 PM CDT
Moon 10:09 PM CDT (8/19) 9:54 AM CDT (8/19)
Length of Visible Light 14h 54m
Length of Day
13h 52m
Waning Gibbous, 85% of the Moon is Illuminated
Aug 19
Waning Gibbous
Aug 23
Last Quarter
Aug 30
New
Sep 5
First Quarter
Sep 13
Full

Hourly Weather History & Observations

Time (CDT) Temp. Dew Point Humidity Pressure Visibility Wind Dir Wind Speed Gust Speed Precip Events Conditions
12:15 AM 54.3 °F 54.3 °F 100% 29.94 in 10.0 mi Calm Calm - N/A   Clear
12:35 AM 52.0 °F 52.0 °F 100% 29.94 in 10.0 mi Calm Calm - N/A   Clear
12:55 AM 52.7 °F 52.7 °F 100% 29.95 in 10.0 mi Calm Calm - N/A   Clear
1:15 AM 51.1 °F 51.1 °F 100% 29.95 in 10.0 mi Calm Calm - N/A   Clear
1:35 AM 50.4 °F 50.4 °F 100% 29.96 in 4.0 mi Calm Calm - N/A   Scattered Clouds
1:55 AM 50.4 °F 50.4 °F 100% 29.96 in 10.0 mi Calm Calm - N/A   Clear
2:15 AM 50.2 °F 50.2 °F 100% 29.97 in 10.0 mi Calm Calm - N/A   Clear
2:35 AM 48.4 °F 48.4 °F 100% 29.98 in 4.0 mi Calm Calm - N/A   Clear
2:55 AM 48.9 °F 48.9 °F 100% 29.98 in 10.0 mi Calm Calm - N/A   Clear
3:15 AM 48.0 °F 48.0 °F 100% 29.98 in 10.0 mi Calm Calm - N/A   Clear
3:35 AM 47.3 °F 47.3 °F 100% 29.98 in 10.0 mi Calm Calm - N/A   Clear
3:55 AM 46.8 °F 46.8 °F 100% 29.98 in 10.0 mi Calm Calm - N/A   Clear
4:15 AM 46.6 °F 46.6 °F 100% 29.99 in 10.0 mi Calm Calm - N/A   Clear
4:35 AM 46.9 °F 46.9 °F 100% 30.00 in 10.0 mi Calm Calm - N/A   Clear
4:55 AM 46.0 °F 46.0 °F 100% 30.00 in 10.0 mi Calm Calm - N/A   Clear
5:15 AM 45.9 °F 45.9 °F 100% 30.01 in 10.0 mi Calm Calm - N/A   Clear
5:35 AM 45.1 °F 45.1 °F 100% 30.01 in 10.0 mi Calm Calm - N/A   Clear
5:55 AM 45.3 °F 45.3 °F 100% 30.02 in 10.0 mi Calm Calm - N/A   Clear
6:15 AM 44.6 °F 44.6 °F 100% 30.03 in 10.0 mi Calm Calm - N/A   Clear
6:35 AM 44.6 °F 44.6 °F 100% 30.03 in 10.0 mi Calm Calm - N/A   Clear
6:55 AM 45.9 °F 45.9 °F 100% 30.03 in 10.0 mi Calm Calm - N/A   Clear
7:15 AM 48.9 °F 48.9 °F 100% 30.03 in 10.0 mi Calm Calm - N/A   Clear
7:35 AM 51.4 °F 51.4 °F 100% 30.04 in 10.0 mi Calm Calm - N/A   Clear
7:55 AM 54.1 °F 54.1 °F 100% 30.04 in 10.0 mi Calm Calm - N/A   Clear
8:15 AM 56.7 °F 54.9 °F 94% 30.04 in 10.0 mi Calm Calm - N/A   Clear
8:35 AM 59.0 °F 54.1 °F 84% 30.04 in 10.0 mi Calm Calm - N/A   Clear
8:55 AM 61.2 °F 54.5 °F 79% 30.04 in 10.0 mi Calm Calm - N/A   Clear
9:15 AM 63.3 °F 53.1 °F 69% 30.04 in 10.0 mi Calm Calm - N/A   Clear
9:35 AM 64.8 °F 52.9 °F 65% 30.04 in 10.0 mi Calm Calm - N/A   Clear
9:55 AM 66.4 °F 50.9 °F 57% 30.05 in 10.0 mi Calm Calm - N/A   Clear
10:15 AM 68.2 °F 50.9 °F 54% 30.05 in 10.0 mi South 3.5 mph - N/A   Clear
10:35 AM 69.1 °F 50.5 °F 52% 30.05 in 10.0 mi Calm Calm - N/A   Clear
10:55 AM 68.5 °F 47.7 °F 47% 30.05 in 10.0 mi SE 3.5 mph - N/A   Clear
11:15 AM 69.3 °F 47.7 °F 46% 30.05 in 10.0 mi Calm Calm - N/A   Clear
11:35 AM 70.2 °F 47.8 °F 45% 30.05 in 10.0 mi SSW 4.6 mph - N/A   Clear
11:55 AM 70.9 °F 48.0 °F 44% 30.05 in 10.0 mi SW 4.6 mph - N/A   Clear
12:15 PM 71.2 °F 48.6 °F 45% 30.05 in 10.0 mi WSW 5.8 mph - N/A   Clear
12:35 PM 71.8 °F 49.3 °F 45% 30.05 in 10.0 mi SW 4.6 mph - N/A   Clear
12:55 PM 72.0 °F 48.0 °F 43% 30.04 in 10.0 mi SW 3.5 mph - N/A   Clear
1:15 PM 73.0 °F 50.0 °F 44% 30.04 in 10.0 mi SSW 11.5 mph - N/A   Clear
1:35 PM 73.8 °F 50.7 °F 44% 30.04 in 10.0 mi South 4.6 mph - N/A   Clear
1:55 PM 74.1 °F 49.3 °F 41% 30.04 in 10.0 mi SW 3.5 mph - N/A   Clear
2:15 PM 74.3 °F 47.7 °F 39% 30.04 in 10.0 mi WNW 4.6 mph - N/A   Clear
2:35 PM 74.7 °F 49.3 °F 41% 30.04 in 10.0 mi SSW 8.1 mph - N/A   Clear
2:55 PM 75.0 °F 48.2 °F 39% 30.04 in 10.0 mi SSW 8.1 mph - N/A   Clear
3:15 PM 75.4 °F 50.7 °F 42% 30.03 in 10.0 mi WSW 4.6 mph - N/A   Clear
3:35 PM 75.6 °F 50.7 °F 42% 30.03 in 10.0 mi West 10.4 mph - N/A   Clear
3:55 PM 75.9 °F 49.1 °F 39% 30.03 in 10.0 mi West 11.5 mph - N/A   Clear
4:15 PM 75.4 °F 50.7 °F 42% 30.03 in 10.0 mi WSW 6.9 mph - N/A   Clear
4:35 PM 75.4 °F 49.1 °F 39% 30.03 in 10.0 mi WSW 6.9 mph - N/A   Clear
4:55 PM 75.4 °F 50.9 °F 42% 30.03 in 10.0 mi West 6.9 mph - N/A   Clear
5:15 PM 75.4 °F 50.7 °F 42% 30.03 in 10.0 mi SW 6.9 mph - N/A   Clear
5:35 PM 75.2 °F 51.6 °F 44% 30.02 in 10.0 mi West 4.6 mph - N/A   Clear
5:55 PM 75.0 °F 50.4 °F 42% 30.02 in 10.0 mi SW 6.9 mph - N/A   Clear
6:15 PM 74.5 °F 49.6 °F 42% 30.02 in 10.0 mi West 6.9 mph - N/A   Clear
6:35 PM 73.8 °F 50.5 °F 44% 30.02 in 10.0 mi Calm Calm - N/A   Clear
6:55 PM 73.9 °F 50.7 °F 44% 30.02 in 10.0 mi West 3.5 mph - N/A   Clear
7:15 PM 73.2 °F 51.8 °F 47% 30.01 in 10.0 mi WSW 3.5 mph - N/A   Clear
10:35 PM 55.4 °F 55.4 °F 100% 30.04 in 10.0 mi Calm Calm - N/A   Clear
10:55 PM 54.1 °F 54.1 °F 100% 30.04 in 10.0 mi Calm Calm - N/A   Clear
11:15 PM 53.6 °F 53.6 °F 100% 30.04 in 10.0 mi Calm Calm - N/A   Clear
11:35 PM 52.7 °F 52.5 °F 99% 30.05 in 10.0 mi Calm Calm - N/A   Clear
11:55 PM 53.1 °F 53.1 °F 100% 30.05 in 10.0 mi Calm Calm - N/A   Clear